User: anonymous   Login
Location: Robert Brownlee Observatory
(34.2308°N, 117.2089°W)
Time: 03:22:14
(UTC-07:00)
Language:

Cosmos 1943 - Orbit

View from above orbital plane
View from above orbital plane
View from above satellite
View from above satellite

Ground track
Ground track

The orbit data is extracted from the following two-line orbital elements,

1 19119U 88039A   15245.86694492 -.00000243 +00000-0 -10066-3 0  9991
2 19119 071.0041 033.6924 0013001 322.3767 144.9330 14.15032125409403
Epoch (UTC): 02 September 2015 20:48:24
Eccentricity: 0.0013001
inclination: 71.0041°
perigee height: 833 km
apogee height: 851 km
right ascension of ascending node: 33.6924°
argument of perigee: 322.3767°
revolutions per day: 14.15032125
mean anomaly at epoch: 144.9330°
orbit number at epoch: 40940

The dashed part of the orbit path shows where the satellite is in the earth's shadow,  

DLR